Date String (YYYY-MM-DD hh:mm:ss) UTC,Instrument flags,absolute air pressure of the measurement (hPa),sample flow rate (lpm),inlet stack bypass flow (lpm),air temperature of the measurement (°C),ambient temperature measured by the external sensor (°C),aerosol sample conditioner tube jacket temperature (°C),OPC LED temperature (°C),internal box temperature (°C),relative humidity of the measurement (%),span deviation,mass concentration of particles derived from Lorenz-Mie calculation of OPC scattering (μg/m³),mass concentration of particles derived from Lorenz-Mie calculation of OPC scattering (μg/m³),mass concentration of particles derived from Lorenz-Mie calculation of OPC scattering (μg/m³)
DateTimeUTC,F1_M11,P_M11,Q1_M11,Q2_M11,T1_M11,T2_M11,T3_M11,T4_M11,T5_M11,U1_M11,ZSPAN_M11,X0_M11,X2_M11,X1_M11
2023-10-25 01:00:00,SystemResetWarning,0826.6,5.01,000.00,028.6,024.5,000.0,036.9,030.1,19.7,0000.0,0033.97,0009.58,0006.65
2023-10-25 01:01:00,SystemResetWarning,0826.6,5.01,000.00,028.5,024.5,000.0,036.9,029.9,19.8,0000.0,0033.94,0009.49,0006.64
2023-10-25 01:02:00,SystemResetWarning,0826.6,4.99,000.00,028.4,024.8,000.0,036.9,029.8,19.9,0000.0,0033.76,0009.43,0006.65
2023-10-25 01:03:00,SystemResetWarning,0826.6,4.99,000.00,028.3,025.2,000.0,036.9,029.8,20.0,0000.0,0032.91,0009.42,0006.67
2023-10-25 01:04:00,SystemResetWarning,0826.6,5.00,000.00,028.3,025.6,000.0,036.9,029.9,20.0,0000.0,0031.49,0009.43,0006.68
2023-10-25 01:05:00,SystemResetWarning,0826.6,5.02,000.00,028.3,025.9,000.0,036.9,029.9,20.1,0000.0,0031.23,0009.41,0006.69
2023-10-25 01:06:00,SystemResetWarning,0826.6,5.00,000.00,028.3,026.2,000.0,036.9,029.9,20.0,0000.0,0030.94,0009.35,0006.70
2023-10-25 01:07:00,SystemResetWarning,0826.6,5.00,000.00,028.3,026.4,000.0,036.9,030.0,20.0,0000.0,0030.27,0009.35,0006.71
2023-10-25 01:08:00,SystemResetWarning,0826.6,5.00,000.00,028.3,026.6,000.0,036.9,030.0,20.0,0000.0,0030.30,0009.37,0006.71
2023-10-25 01:09:00,SystemResetWarning,0826.6,5.00,000.00,028.4,026.8,000.0,036.9,030.0,20.0,0000.4,0030.36,0009.35,0006.71
2023-10-25 01:10:00,SystemResetWarning,0826.6,5.00,000.00,028.4,026.9,000.0,036.9,030.1,20.0,0001.7,0029.67,0009.39,0006.72
2023-10-25 01:11:00,SystemResetWarning,0826.6,5.01,000.00,028.4,027.0,000.0,036.9,030.1,20.0,0002.1,0027.96,0009.48,0006.73
2023-10-25 01:12:00,SystemResetWarning,0826.6,5.00,000.00,028.4,027.1,000.0,036.9,030.2,20.1,0001.9,0028.57,0009.63,0006.75
2023-10-25 01:13:00,SystemResetWarning,0826.6,5.00,000.00,028.5,027.2,000.0,036.9,030.2,20.1,0002.1,0027.34,0009.69,0006.76
2023-10-25 01:14:00,SystemResetWarning,0826.6,5.00,000.00,028.5,027.2,000.0,036.9,030.2,20.1,0002.0,0026.43,0009.71,0006.75
2023-10-25 01:15:00,SystemResetWarning,0826.6,4.99,000.00,028.5,027.3,000.0,036.9,030.2,20.1,0001.9,0027.00,0009.77,0006.74
2023-10-25 01:16:00,SystemResetWarning,0826.6,5.00,000.00,028.6,027.3,000.0,036.9,030.3,20.1,0002.1,0028.65,0009.80,0006.74
2023-10-25 01:17:00,SystemResetWarning,0826.6,5.00,000.00,028.6,027.4,000.0,036.9,030.3,20.1,0001.3,0030.60,0009.86,0006.73
2023-10-25 01:18:00,SystemResetWarning,0826.6,5.00,000.00,028.6,027.4,000.0,036.9,030.4,20.1,0001.4,0030.74,0009.86,0006.71
2023-10-25 01:19:00,SystemResetWarning,0826.6,5.00,000.00,028.6,027.4,000.0,036.9,030.4,20.1,0000.0,0030.78,0009.85,0006.70
2023-10-25 01:20:00,SystemResetWarning,0826.6,5.00,000.00,028.7,027.5,000.0,037.0,030.4,20.1,0000.0,0030.64,0009.84,0006.69
2023-10-25 01:21:00,SystemResetWarning,0826.6,5.00,000.00,028.7,027.5,000.0,037.0,030.4,20.1,0000.0,0030.02,0009.82,0006.66
2023-10-25 01:22:00,SystemResetWarning,0826.6,5.00,000.00,028.7,027.5,000.0,037.0,030.4,20.1,0000.0,0030.92,0009.77,0006.64
2023-10-25 01:23:00,SystemResetWarning,0826.7,4.99,000.00,028.7,026.6,000.0,037.0,030.4,20.2,0000.0,0031.22,0009.65,0006.62
2023-10-25 01:24:00,SystemResetWarning,0826.7,5.01,000.00,028.6,024.7,000.0,036.9,030.2,20.2,0000.0,0031.48,0009.55,0006.61
2023-10-25 01:25:00,SystemResetWarning,0826.7,5.00,000.00,028.5,024.3,000.0,036.9,030.1,20.4,0000.0,0033.08,0009.55,0006.60
2023-10-25 01:26:00,SystemResetWarning,0826.7,5.01,000.00,028.4,024.5,000.0,036.9,029.8,20.6,0000.0,0034.51,0009.57,0006.61
2023-10-25 01:27:00,SystemResetWarning,0826.7,5.01,000.00,028.3,024.8,000.0,036.9,029.7,20.8,0000.0,0035.28,0009.57,0006.61
2023-10-25 01:28:00,SystemResetWarning,0826.7,4.99,000.00,028.3,025.2,000.0,036.9,029.8,20.9,0000.0,0033.37,0009.51,0006.60
2023-10-25 01:29:00,SystemResetWarning,0826.7,5.00,000.00,028.3,025.5,000.0,036.8,029.8,21.0,0000.6,0034.65,0009.50,0006.58
2023-10-25 01:30:00,SystemResetWarning,0826.7,5.01,000.00,028.2,025.8,000.0,036.8,029.8,21.0,0001.8,0034.73,0009.39,0006.56
2023-10-25 01:31:00,SystemResetWarning,0826.6,5.01,000.00,028.2,026.0,000.0,036.8,029.9,21.1,0004.0,0034.75,0009.32,0006.52
2023-10-25 01:32:00,SystemResetWarning,0826.6,4.99,000.00,028.2,026.2,000.0,036.8,029.9,21.1,0002.6,0035.42,0009.36,0006.48
2023-10-25 01:33:00,SystemResetWarning,0826.6,4.99,000.00,028.2,026.4,000.0,036.8,029.9,21.1,0004.9,0035.17,0009.36,0006.44
2023-10-25 01:34:00,SystemResetWarning,0826.6,4.99,000.00,028.3,026.5,000.0,036.8,029.9,21.1,0004.8,0035.35,0009.33,0006.38
2023-10-25 01:35:00,SystemResetWarning,0826.6,5.00,000.00,028.3,026.6,000.0,036.8,030.0,21.1,0004.8,0035.44,0009.28,0006.31
2023-10-25 01:36:00,SystemResetWarning,0826.6,5.00,000.00,028.3,026.7,000.0,036.8,030.0,21.0,0004.7,0035.95,0009.19,0006.24
2023-10-25 01:37:00,SystemResetWarning,0826.6,5.00,000.00,028.3,026.8,000.0,036.8,030.0,21.0,0003.8,0035.95,0009.09,0006.18
2023-10-25 01:38:00,SystemResetWarning,0826.6,5.00,000.00,028.3,026.9,000.0,036.8,030.1,21.0,0003.4,0034.28,0009.00,0006.13
2023-10-25 01:39:00,SystemResetWarning,0826.6,5.00,000.00,028.4,027.0,000.0,036.8,030.1,20.9,0000.0,0034.61,0008.94,0006.07
2023-10-25 01:40:00,SystemResetWarning,0826.6,5.00,000.00,028.4,027.0,000.0,036.8,030.1,20.8,0000.0,0033.12,0008.91,0006.02
2023-10-25 01:41:00,SystemResetWarning,0826.6,5.00,000.00,028.4,027.1,000.0,036.8,030.1,20.8,0000.0,0032.94,0008.96,0005.98
2023-10-25 01:42:00,SystemResetWarning,0826.5,5.00,000.00,028.4,027.1,000.0,036.8,030.2,21.0,0000.0,0033.78,0009.07,0005.97
2023-10-25 01:43:00,SystemResetWarning,0826.6,4.99,000.00,028.4,027.1,000.0,036.8,030.2,21.1,0000.0,0033.97,0009.12,0005.99
2023-10-25 01:44:00,SystemResetWarning,0826.6,5.00,000.00,028.5,027.2,000.0,036.8,030.2,21.2,0000.0,0034.50,0009.11,0005.99
2023-10-25 01:45:00,SystemResetWarning,0826.6,5.00,000.00,028.5,027.2,000.0,036.8,030.2,21.2,0000.0,0035.87,0009.10,0006.00
2023-10-25 01:46:00,SystemResetWarning,0826.6,5.01,000.00,028.5,027.2,000.0,036.8,030.2,21.3,0000.0,0035.97,0009.13,0006.02
2023-10-25 01:47:00,SystemResetWarning,0826.6,5.01,000.00,028.5,027.2,000.0,036.8,030.3,21.3,0000.0,0035.60,0009.19,0006.04
2023-10-25 01:48:00,SystemResetWarning,0826.6,5.00,000.00,028.5,027.3,000.0,036.9,030.3,21.3,0000.0,0035.22,0009.21,0006.03
2023-10-25 01:49:00,SystemResetWarning,0826.6,5.00,000.00,028.5,027.3,000.0,036.9,030.3,21.3,0002.1,0035.63,0009.19,0005.99
2023-10-25 01:50:00,SystemResetWarning,0826.6,5.00,000.00,028.6,027.3,000.0,036.9,030.3,21.2,0002.4,0035.27,0009.14,0005.94
2023-10-25 01:51:00,SystemResetWarning,0826.6,4.99,000.00,028.6,027.4,000.0,036.9,030.4,21.2,0002.2,0033.91,0009.12,0005.88
2023-10-25 01:52:00,SystemResetWarning,0826.6,4.99,000.00,028.6,027.4,000.0,036.9,030.4,21.2,0002.0,0033.67,0008.97,0005.79
2023-10-25 01:53:00,SystemResetWarning,0826.6,5.00,000.00,028.6,027.4,000.0,037.0,030.4,21.2,0001.9,0032.65,0008.73,0005.67
2023-10-25 01:54:00,SystemResetWarning,0826.6,4.99,000.00,028.7,027.5,000.0,037.0,030.4,21.2,0002.3,0032.28,0008.58,0005.52
2023-10-25 01:55:00,SystemResetWarning,0826.6,5.00,000.00,028.7,027.5,000.0,037.0,030.4,21.0,0001.7,0031.15,0008.42,0005.38
2023-10-25 01:56:00,SystemResetWarning,0826.6,5.00,000.00,028.7,027.5,000.0,037.0,030.5,21.0,-000.7,0028.83,0008.18,0005.25
2023-10-25 01:57:00,SystemResetWarning,0826.6,5.00,000.00,028.7,027.6,000.0,037.0,030.5,21.0,-002.0,0026.72,0007.98,0005.09
2023-10-25 01:58:00,SystemResetWarning,0826.6,4.99,000.00,028.8,027.1,000.0,037.1,030.4,21.0,-001.4,0025.60,0007.77,0004.92
2023-10-25 01:59:00,SystemResetWarning,0826.6,5.00,000.00,028.7,025.1,000.0,037.0,030.3,21.1,-001.2,0024.96,0007.56,0004.77
